Regional Weather Roundup
Issued by NWS

Home | Current Version | Previous Version | Text Only | Print | Product List | Glossary On
Versions: 1 2 3 4 5 6 7 8 9 10 11 12 13 14 15 16 17 18 19 20 21 22 23 24 25 26 27 28 29 30 31 32 33 34 35 36 37 38 39 40 41 42 43 44 45
000
ASUS45 KBOU 221207
RWRCO

WEATHER ROUNDUP FOR COLORADO
NATIONAL WEATHER SERVICE DENVER/BOULDER CO
600 AM MDT WED OCT 22 2014

NOTE: "FAIR" INDICATES FEW OR NO CLOUDS BELOW 12000 FEET WITH NO
SIGNIFICANT WEATHER AND/OR OBSTRUCTIONS TO VISIBILITY.

COZ001>005-013-030-031-221300-
...NORTHWEST COLORADO...

CITY           SKY/WX    TMP DP  RH WIND       PRES   REMARKS
CRAIG          MOCLDY    37  34  89 CALM      30.15R
HAYDEN         MOCLDY    39  36  87 E7        30.15R
MEEKER         MOCLDY    42  39  89 MISG      30.15R
MOUNT WERNER   NOT AVBL
STEAMBOAT SPGS CLOUDY    38  37  93 CALM      30.16S
WALDEN         PTCLDY    36  32  87 S7        30.16S
$$

COZ006>008-011-221300-
...WEST CENTRAL VALLEYS...

CITY           SKY/WX    TMP DP  RH WIND       PRES   REMARKS
GRAND JUNCTION PTCLDY    44  42  93 SE3       30.09R
MONTROSE       MOCLDY    47  42  83 SE6       30.15R THUNDER
EAGLE          MOCLDY    43  41  93 S3        30.21R
RIFLE          PTCLDY    45  43  93 CALM      30.14R
DELTA          CLOUDY    52  47  82 NE7       30.12R
NUCLA          PTCLDY    43  37  81 E10       30.16S
$$

COZ017>023-064>068-221300-
...SOUTHWEST COLORADO...

CITY           SKY/WX    TMP DP  RH WIND       PRES   REMARKS
DURANGO        CLEAR     38  36  92 CALM      30.18R
CORTEZ         CLEAR     37  34  89 SE3       30.15R
PAGOSA SPRINGS PTCLDY    40  40 100 CALM      30.22S
TELLURIDE      NOT AVBL
WOLF CREEK PAS FOG       32  32 100 SW9G17      N/A  VSB 1/2 WCI  24
$$

COZ009-010-012-014-032>034-037-058>063-221300-
...CENTRAL COLORADO...

CITY           SKY/WX    TMP DP  RH WIND       PRES   REMARKS
ASPEN          LGT RAIN  38  36  92 S7        30.21F
BUENA VISTA    MOCLDY    39  34  82 NW8       30.21R
COPPER MTN     SNOW      34  30  86 W16       30.33S VSB 1/4 WCI  23
BERTHOUD PASS  FAIR      25  21  86 MISG      30.30S
COTTONWOOD PAS MOCLDY    39  36  87 CALM      30.27R
GUNNISON       MOCLDY    37  34  87 S5        30.24S
KREMMLING      MOCLDY    39  34  81 CALM        N/A
LEADVILLE      LGT SNOW  32  32 100 N3        30.27R FOG
MONARCH PASS   HVY SNOW  32  30  93 MISG      30.43R VSB<1/4
SALIDA         CLOUDY    43  38  82 W7        30.28R
SUNLIGHT       CLOUDY    36  34  93 CALM      30.30R
WILKERSON PASS NOT AVBL
$$

COZ069>075-221300-
...SAN LUIS VALLEY/SANGRE DE CRISTO MOUNTAINS...

CITY           SKY/WX    TMP DP  RH WIND       PRES   REMARKS
ALAMOSA        CLEAR     30  28  92 CALM      30.20R
LA VETA PASS   PTCLDY    36  32  87 S10G20    30.28R
SAGUACHE       PTCLDY    36  32  87 N9        30.22R
$$

COZ035-036-038>040-221300-
...NORTHERN COLORADO FRONT RANGE...

CITY           SKY/WX    TMP DP  RH WIND       PRES   REMARKS
DENVER INTL AP MOCLDY    46  41  82 SE6       30.04F
DMNS CITY PARK   N/A     50  42  73 SE2G8     30.05S
AURORA         PTCLDY    45  41  86 S7        30.07S
FRONT RANGE AP NOT AVBL
ERIE MUNI ARPT PTCLDY    49  44  82 CALM      30.02S
BOULDER MUN AP PTCLDY    55  34  44 SW7       30.02F
CENTENNIAL     PTCLDY    45  40  82 S6        30.08R
BROOMFIELD     MOCLDY    54  37  54 W12       30.05F
FORT COLLINS   PTCLDY    52  41  66 S9        30.04R
LONGMONT       PTCLDY    48  43  81 CALM      30.04R
$$

COZ041-046-047-076>085-087-088-221300-
...PIKES PEAK/PALMER DIVIDE AND SOUTHERN FOOTHILLS...

CITY           SKY/WX    TMP DP  RH WIND       PRES   REMARKS
COLO. SPRINGS  PTCLDY    50  36  58 N7        30.10R
A. F. ACADEMY  PTCLDY    46  37  72 N8        30.11R
ELLICOTT       PTCLDY    45  39  79 CALM      30.09R
FALCON         PTCLDY    46  38  72 N12       30.13R
FORT CARSON    PTCLDY    50  38  64 W6        30.07R
LIMON          MOCLDY    47  42  83 W8        30.06R
MONUMENT HILL  CLEAR     37  36  93 W7        30.13R
TRINIDAD       MOCLDY    51  42  71 NW8       30.07R
$$

COZ042>045-048>051-090-091-221300-
...NORTHEAST COLORADO...

CITY           SKY/WX    TMP DP  RH WIND       PRES   REMARKS
GREELEY ARPT   PTCLDY    46  36  66 CALM      30.03R
AKRON          CLOUDY    52  46  80 NW9       30.01R
BURLINGTON     MOCLDY    55  44  66 N6        29.98R
WRAY           CLOUDY    56  47  70 N6        29.96R
STERLING       CLOUDY    54  50  87 W3        29.99R
HOLYOKE        MOCLDY    54  45  71 CALM      29.96F
FORT MORGAN    CLOUDY    53  43  69 N8        30.01R
$$

COZ086-089-092>099-221300-
...SOUTHEAST COLORADO...

CITY           SKY/WX    TMP DP  RH WIND       PRES   REMARKS
PUEBLO         PTCLDY    49  41  74 CALM      30.04R
LA JUNTA       MOCLDY    51  44  77 W7        30.00R
LAMAR          MOCLDY    54  48  80 W7        29.95R
SPRINGFIELD      N/A     55  52  89 S14       30.00S
$$



USA.gov is the U.S. government's official web portal to all federal, state and local government web resources and services.